Location: Corte Bragagnani
(45.3000°N, 11.1000°E)
Time: 17:20:06
(UTC+00:00)

STARLINK-1243 - Pass Details

Date: 09 April 2020
Orbit: 549 x 550 km, 53.0° (Epoch: 25 May)

Event Time Altitude Azimuth Distance (km) Brightness Sun altitude
Rises 19:14:58 0° 301° (WNW) 2,730 9.1 -14.1°
Reaches altitude 10° 19:17:16 10° 308° (NW) 1,834 7.6 -14.5°
Maximum altitude 19:21:18 46° 22° (NNE) 746 4.3 -15.1°
Enters shadow 19:23:30 24° 85° (E) 1,182 4.8 -15.5°
